Regional Weather Roundup
Issued by NWS Sioux Falls, SD

Home | Current Version | Previous Version | Graphics & Text | Print | Product List | Glossary On
Versions: 1 2 3 4 5 6 7 8 9 10 11 12 13 14 15 16 17 18 19 20 21 22 23 24 25 26 27 28 29 30 31 32 33 34 35 36 37 38 39 40 41 42 43 44 45 46 47 48 49 50
000
ASUS43 KFSD 201202
RWRFSD

WEATHER ROUNDUP FOR SE SOUTH DAKOTA/SW MINNESOTA/NW IOWA
NATIONAL WEATHER SERVICE SIOUX FALLS SD
700 AM CDT SUN APR 20 2014

NOTE: "FAIR" INDICATES FEW OR NO CLOUDS BELOW 12,000 FEET WITH NO
SIGNIFICANT WEATHER AND OR OBSTRUCTIONS TO VISIBILITY.


SDZ038>040-050-052>070-201300-
SOUTHEAST SOUTH DAKOTA

CITY           SKY/WX    TMP DP  RH WIND       PRES   REMARKS
CHAMBERLAIN      N/A     40  33  76 CALM      29.99F
6HR MIN TEMP:  35; 6HR MAX TEMP:  51;

HURON          CLEAR     35  28  75 SE3       30.00F
6HR MIN TEMP:  32; 6HR MAX TEMP:  43;

MADISON        FAIR      36  25  64 NE10      30.02S
MITCHELL         N/A    N/A N/A N/A MISG      30.01S
6HR MIN TEMP:  31; 6HR MAX TEMP:  48;

SIOUX FALLS    PTCLDY    44  37  76 NE5       29.99F
6HR MIN TEMP:  44; 6HR MAX TEMP:  55;

WINNER         FAIR      41  22  46 SE6       29.99S
YANKTON        CLEAR     45  36  70 N6        29.98S
$$

MNZ071-072-080-081-089-090-097-098-201300-
SOUTHWEST MINNESOTA

CITY           SKY/WX    TMP DP  RH WIND       PRES   REMARKS
FAIRMONT       PTCLDY    46  43  87 N5        30.02S
JACKSON        PTCLDY    45  41  87 NE6       30.01S
LUVERNE        PTCLDY    52  37  58 NE8       30.00S
MARSHALL       CLEAR     37  30  75 W6        30.02F
6HR MIN TEMP:  37; 6HR MAX TEMP:  50;

MONTEVIDEO     CLEAR     36  28  75 N3        30.05R
PIPESTONE      PTCLDY    45  37  76 NE5       30.01S
REDWOOD FALLS  CLEAR     45  43  93 NW3       30.02S FOG
TRACY          PTCLDY    44  36  72 CALM      30.03S
WINDOM         PTCLDY    48  37  66 NE3       30.01S
WORTHINGTON    PTCLDY    48  36  61 E7        30.02F
$$

IAZ001>003-012>014-020>022-031-032-NEZ013-014-SDZ071-201300-
NORTHWEST IOWA

CITY           SKY/WX    TMP DP  RH WIND       PRES   REMARKS
CHEROKEE       CLOUDY    55  49  81 CALM      29.98R
DENISON        PTCLDY    59  45  58 S7        29.99R
ESTHERVILLE    MOCLDY    48  46  93 E3        30.00S FOG
SIOUX CITY     CLOUDY    58  47  66 E8        29.96S THUNDER
6HR MIN TEMP:  53; 6HR MAX TEMP:  60;

SPENCER        PTCLDY    50  43  77 E6        30.00R
6HR MIN TEMP:  49; 6HR MAX TEMP:  57; 6HR PCP: TRACE;

STORM LAKE     MOCLDY    54  50  87 S9        29.99S
$$

ABBREVIATIONS USED IN REMARKS
   TC - TEMPERATURE IN CELSIUS
  WCI - WIND CHILL INDEX
   HX - HEAT INDEX
  VSB - VISIBILITY




USA.gov is the U.S. government's official web portal to all federal, state and local government web resources and services.